Here is the Quick Look data you requested

The Data originates at the National Weather Service, and is made available here by the UAlbany Department of Atmospheric and Environmental Sciences

Surface Observations

KNHK 180152Z AUTO 14010KT 9SM -RA SCT070 BKN080 OVC100 03/03 A2993 RMK AO2
 SLP136 P0002 T00330028 $=
KNHK 180252Z AUTO 17006KT 8SM -RA FEW007 BKN016 OVC075 04/04 A2995 RMK AO2
 SLP140 P0002 60005 T00390039 55017 $
KNHK 180252Z AUTO 17006KT 8SM -RA FEW007 BKN016 OVC075 04/04 A2995 RMK AO2
 SLP140 P0002 60005 T00390039 55017 $=
KNHK 180310Z AUTO 00000KT 4SM RA BR BKN007 OVC015 04/04 A2996 RMK AO2 P0003
 T00390039 $
KNHK 180310Z AUTO 00000KT 4SM RA BR BKN007 OVC015 04/04 A2996 RMK AO2 P0003
 T00390039 $=
KNHK 180352Z AUTO 00000KT 6SM -RA BR OVC007 04/04 A2994 RMK AO2 SLP139 P0006
 T00390039 $
KNHK 180352Z AUTO 00000KT 6SM -RA BR OVC007 04/04 A2994 RMK AO2 SLP139 P0006
 T00390039 $=
KNHK 180447Z AUTO 00000KT 8SM -RA OVC005 04/04 A2992 RMK AO2 P0003 $
KNHK 180447Z AUTO 00000KT 8SM -RA OVC005 04/04 A2992 RMK AO2 P0003 $=
KNHK 180452Z AUTO 00000KT 7SM -RA OVC005 04/04 A2991 RMK AO2 SLP130 P0003
 T00390039 400391011 $
KNHK 180447Z AUTO 00000KT 8SM -RA OVC005 04/04 A2992 RMK AO2 P0003 $=
KNHK 180452Z AUTO 00000KT 7SM -RA OVC005 04/04 A2991 RMK AO2 SLP130 P0003
 T00390039 400391011 $=
KNHK 180552Z AUTO VRB04KT 6SM -RA BR OVC005 04/04 A2988 RMK AO2 SLP119 P0004
 60018 T00440044 10044 20033 58019 $
KNHK 180552Z AUTO VRB04KT 6SM -RA BR OVC005 04/04 A2988 RMK AO2 SLP119 P0004
 60018 T00440044 10044 20033 58019 $=
KNHK 180652Z AUTO 6SM -RA BR BKN005 OVC010 04/04 A2984 RMK AO2 PRESFR SLP104
 P0005 T00440044 $
KNHK 180652Z AUTO 6SM -RA BR BKN005 OVC010 04/04 A2984 RMK AO2 PRESFR SLP104
 P0005 T00440044 $=
KNHK 180752Z AUTO 20004KT 10SM -RA OVC005 05/05 A2984 RMK AO2 SLP104 P0004
 T00500050 $
KNHK 180752Z AUTO 20004KT 10SM -RA OVC005 05/05 A2984 RMK AO2 SLP104 P0004
 T00500050 $=
KNHK 180844Z AUTO 19006KT 7SM -RA SCT007 OVC070 05/05 A2980 RMK AO2 P0002
 T00500050 $
KNHK 180844Z AUTO 19006KT 7SM -RA SCT007 OVC070 05/05 A2980 RMK AO2 P0002
 T00500050 $=
KNHK 180852Z AUTO VRB06KT 6SM RA BR FEW007 OVC075 05/05 A2977 RMK AO2 SLP082
 P0003 60012 T00500050 58037 $
KNHK 180852Z AUTO VRB06KT 6SM RA BR FEW007 OVC075 05/05 A2977 RMK AO2 SLP082
 P0003 60012 T00500050 58037 $=
KNHK 180952Z AUTO 22004KT 9SM -RA FEW046 SCT070 OVC090 06/06 A2976 RMK AO2 CIG
 005 RY24 SLP077 P0005 T00560056 $
KNHK 180952Z AUTO 22004KT 9SM -RA FEW046 SCT070 OVC090 06/06 A2976 RMK AO2 CIG
 005 RY24 SLP077 P0005 T00560056 $=
KNHK 181004Z AUTO 20003KT 10SM SCT005 BKN047 OVC100 06/06 A2975 RMK AO2 RAE03
 CIG 005 RY24 P0000 T00560056 $
KNHK 181006Z AUTO 20004KT 10SM BKN005 BKN048 OVC100 06/06 A2975 RMK AO2 RAE03
 P0000 T00560056 $
KNHK 181004Z AUTO 20003KT 10SM SCT005 BKN047 OVC100 06/06 A2975 RMK AO2 RAE03
 CIG 005 RY24 P0000 T00560056 $=
KNHK 181006Z AUTO 20004KT 10SM BKN005 BKN048 OVC100 06/06 A2975 RMK AO2 RAE03
 P0000 T00560056 $=
KNHK 181004Z AUTO 20003KT 10SM SCT005 BKN047 OVC100 06/06 A2975 RMK AO2 RAE03
 CIG 005 RY24 P0000 T00560056 $=
KNHK 181006Z AUTO 20004KT 10SM BKN005 BKN048 OVC100 06/06 A2975 RMK AO2 RAE03
 P0000 T00560056 $=
KNHK 181052Z AUTO 31008KT 10SM -RA OVC005 06/06 A2981 RMK AO2 RAE03B34 PRESRR
 SLP094 P0001 T00610061 $
KNHK 181052Z AUTO 31008KT 10SM -RA OVC005 06/06 A2981 RMK AO2 RAE03B34 PRESRR
 SLP094 P0001 T00610061 $=
KNHK 181152Z AUTO 31008KT 10SM -RA OVC005 06/06 A2984 RMK AO2 SLP103 P0001
 60019 70037 T00560056 10061 20044 53021 $
KNHK 181152Z AUTO 31008KT 10SM -RA OVC005 06/06 A2984 RMK AO2 SLP103 P0001
 60019 70037 T00560056 10061 20044 53021 $=
KNHK 181214Z AUTO 31006KT 7SM -RA OVC007 06/06 A2984 RMK AO2 P0001 T00560056 $
KNHK 181214Z AUTO 31006KT 7SM -RA OVC007 06/06 A2984 RMK AO2 P0001 T00560056 $=
KNHK 181252Z AUTO 32007KT 10SM BKN009 OVC014 06/06 A2986 RMK AO2 RAE26 SLP113
 P0001 T00560056 $
KNHK 181252Z AUTO 32007KT 10SM BKN009 OVC014 06/06 A2986 RMK AO2 RAE26 SLP113
 P0001 T00560056 $=
KNHK 181313Z AUTO 28006KT 10SM SCT009 SCT023 OVC028 06/06 A2988 RMK AO2
 T00560056 $
KNHK 181313Z AUTO 28006KT 10SM SCT009 SCT023 OVC028 06/06 A2988 RMK AO2
 T00560056 $=
KNHK 181352Z AUTO 24008KT 10SM OVC029 06/06 A2991 RMK AO2 SLP129 T00560056 $
KNHK 181352Z AUTO 24008KT 10SM OVC029 06/06 A2991 RMK AO2 SLP129 T00560056 $=
KNHK 181415Z AUTO 26008KT 10SM OVC031 06/06 A2991 RMK AO2 T00610061 $
KNHK 181415Z AUTO 26008KT 10SM OVC031 06/06 A2991 RMK AO2 T00610061 $=
KNHK 181452Z AUTO 28008KT 10SM OVC033 07/06 A2993 RMK AO2 SLP134 60001
 T00720061 51031 $
KNHK 181452Z AUTO 28008KT 10SM OVC033 07/06 A2993 RMK AO2 SLP134 60001
 T00720061 51031 $=
KNHK 181552Z AUTO 30009KT 10SM BKN036 09/06 A2996 RMK AO2 SLP145 T00940061 $
KNHK 181552Z AUTO 30009KT 10SM BKN036 09/06 A2996 RMK AO2 SLP145 T00940061 $=
KNHK 181652Z AUTO 32010KT 10SM FEW026 FEW032 09/06 A2998 RMK AO2 SLP152
 T00940056 $
KNHK 181652Z AUTO 32010KT 10SM FEW026 FEW032 09/06 A2998 RMK AO2 SLP152
 T00940056 $=
KNHK 181752Z AUTO 32013KT 10SM FEW038 10/04 A2998 RMK AO2 SLP152 60001
 T01000039 10106 20056 51018 $
KNHK 181752Z AUTO 32013KT 10SM FEW038 10/04 A2998 RMK AO2 SLP152 60001
 T01000039 10106 20056 51018 $=
KNHK 181852Z AUTO 32011G21KT 10SM FEW049 11/03 A2999 RMK AO2 SLP157 T01110028 $
KNHK 181852Z AUTO 32011G21KT 10SM FEW049 11/03 A2999 RMK AO2 SLP157 T01110028 $=
KNHK 181952Z AUTO 33016KT 10SM FEW050 11/02 A3002 RMK AO2 SLP166 T01060017 $
KNHK 181952Z AUTO 33016KT 10SM FEW050 11/02 A3002 RMK AO2 SLP166 T01060017 $=
KNHK 182052Z AUTO 33016KT 10SM BKN050 09/01 A3006 RMK AO2 SLP179 T00890006
 53027 $
KNHK 182052Z AUTO 33016KT 10SM BKN050 09/01 A3006 RMK AO2 SLP179 T00890006
 53027 $=
KNHK 182152Z AUTO 33014KT 10SM OVC055 08/M01 A3011 RMK AO2 SLP194 T00831006 $
KNHK 182152Z AUTO 33014KT 10SM OVC055 08/M01 A3011 RMK AO2 SLP194 T00831006 $=
KNHK 182252Z AUTO 32021G25KT 10SM BKN060 07/M02 A3017 RMK AO2 PK WND 31027/2251
 SLP215 T00721022 $
KNHK 182252Z AUTO 32021G25KT 10SM BKN060 07/M02 A3017 RMK AO2 PK WND 31027/2251
 SLP215 T00721022 $=
KNHK 182352Z AUTO 32015G24KT 10SM BKN065 07/M02 A3022 RMK AO2 PK WND 32027/2301
 SLP234 T00671022 10122 20067 53055 $
KNHK 182352Z AUTO 32015G24KT 10SM BKN065 07/M02 A3022 RMK AO2 PK WND 32027/2301
 SLP234 T00671022 10122 20067 53055 $=
KNHK 190052Z AUTO 34014KT 10SM CLR 06/M03 A3027 RMK AO2 SLP248 T00611028 $
KNHK 190052Z AUTO 34014KT 10SM CLR 06/M03 A3027 RMK AO2 SLP248 T00611028 $=
KNHK 190152Z AUTO 32011G20KT 10SM CLR 05/M03 A3030 RMK AO2 SLP259 T00501028 $
KNHK 190152Z AUTO 32011G20KT 10SM CLR 05/M03 A3030 RMK AO2 SLP259 T00501028 $=
KNHK 190252Z AUTO 34012KT 10SM FEW049 05/M03 A3034 RMK AO2 SLP274 T00501033
 51040 $
KNHK 190252Z AUTO 34012KT 10SM FEW049 05/M03 A3034 RMK AO2 SLP274 T00501033
 51040 $=
KNHK 190352Z AUTO 31015G25KT 10SM CLR 04/M05 A3037 RMK AO2 SLP283 T00441050 $
KNHK 190352Z AUTO 31015G25KT 10SM CLR 04/M05 A3037 RMK AO2 SLP283 T00441050 $=
KNHK 190452Z AUTO 33013KT 10SM CLR 04/M04 A3040 RMK AO2 SLP293 T00391044
 401220039 $
KNHK 190452Z AUTO 33013KT 10SM CLR 04/M04 A3040 RMK AO2 SLP293 T00391044
 401220039 $=
KNHK 190552Z AUTO 34013KT 10SM CLR 03/M05 A3043 RMK AO2 SLP306 T00331050 10067
 20033 53032 $
KNHK 190552Z AUTO 34013KT 10SM CLR 03/M05 A3043 RMK AO2 SLP306 T00331050 10067
 20033 53032 $=
KNHK 190652Z AUTO 33014KT 10SM CLR 02/M06 A3045 RMK AO2 SLP312 T00221056 $
KNHK 190652Z AUTO 33014KT 10SM CLR 02/M06 A3045 RMK AO2 SLP312 T00221056 $=
KNHK 190752Z AUTO 35012KT 10SM CLR 02/M06 A3047 RMK AO2 SLP319 T00171056 $
KNHK 190752Z AUTO 35012KT 10SM CLR 02/M06 A3047 RMK AO2 SLP319 T00171056 $=